ACA1259 CYHZ-KMCO

Flight info

Callsign ACA1259
Flight time N/A
Altitude 32000
Route ACADN DCT DUVIN DCT BUZRD Q167 ALBOW/N0463F340 Q167 RIFLE DCT HEADI Q97 SAWED DCT MOXXY Q85 LPERD SNFLD3
Aircraft B738/M-SDE2E3FGHIRWXY/LB1

Departure

Time 2026-05-05 16:02
Airport Halifax / Stanfield International Airport (CYHZ)

Arrival

Time N/A
Airport Orlando International Airport (KMCO)
Time Latitude Longitude Altitude Speed Heading
2026-05-05 15:22 44.88881 -63.51493 451 ft 0 kts 215°
2026-05-05 15:22 44.88887 -63.51487 449 ft 0 kts 215°
2026-05-05 15:51 44.88888 -63.51486 451 ft 2 kts 215°
2026-05-05 15:51 44.88909 -63.51466 451 ft 4 kts 215°
2026-05-05 15:51 44.88931 -63.51444 451 ft 4 kts 215°
2026-05-05 15:51 44.88948 -63.51427 449 ft 4 kts 192°
2026-05-05 15:52 44.88968 -63.51436 451 ft 4 kts 128°
2026-05-05 15:52 44.88982 -63.51465 451 ft 3 kts 125°
2026-05-05 15:52 44.88985 -63.51470 451 ft 0 kts 125°
2026-05-05 15:55 44.88984 -63.51469 451 ft 1 kts 125°
2026-05-05 15:55 44.88978 -63.51457 451 ft 3 kts 125°
2026-05-05 15:55 44.88955 -63.51410 450 ft 8 kts 125°
2026-05-05 15:56 44.88915 -63.51334 451 ft 11 kts 135°
2026-05-05 15:56 44.88848 -63.51299 449 ft 10 kts 170°
2026-05-05 15:56 44.88778 -63.51282 451 ft 11 kts 169°
2026-05-05 15:56 44.88710 -63.51259 451 ft 10 kts 149°
2026-05-05 15:57 44.88694 -63.51174 451 ft 9 kts 78°
2026-05-05 15:57 44.88706 -63.51085 451 ft 9 kts 80°
2026-05-05 15:57 44.88718 -63.50998 451 ft 9 kts 79°
2026-05-05 15:57 44.88739 -63.50919 449 ft 9 kts 54°
2026-05-05 15:58 44.88784 -63.50866 449 ft 8 kts 35°
2026-05-05 15:58 44.88831 -63.50819 450 ft 8 kts 36°
2026-05-05 15:58 44.88879 -63.50771 449 ft 9 kts 35°
2026-05-05 15:58 44.88926 -63.50724 449 ft 8 kts 35°
2026-05-05 15:59 44.88973 -63.50678 450 ft 8 kts 37°
2026-05-05 15:59 44.89002 -63.50629 449 ft 6 kts 68°
2026-05-05 15:59 44.89002 -63.50625 450 ft 0 kts 71°
2026-05-05 16:00 44.89002 -63.50624 450 ft 0 kts 72°
2026-05-05 16:00 44.89003 -63.50596 450 ft 6 kts 97°
2026-05-05 16:00 44.88973 -63.50518 449 ft 12 kts 123°
2026-05-05 16:00 44.88908 -63.50436 450 ft 12 kts 175°
2026-05-05 16:01 44.88862 -63.50457 449 ft 0 kts 213°
2026-05-05 16:01 44.88852 -63.50466 450 ft 6 kts 213°
2026-05-05 16:01 44.88644 -63.50672 450 ft 71 kts 215°
2026-05-05 16:02 44.88062 -63.51247 448 ft 132 kts 215°
2026-05-05 16:02 44.87179 -63.52117 570 ft 170 kts 214°
2026-05-05 16:02 44.86226 -63.53073 1294 ft 171 kts 216°
2026-05-05 16:02 44.85259 -63.54115 2001 ft 176 kts 216°
2026-05-05 16:03 44.84266 -63.55188 2553 ft 190 kts 217°
2026-05-05 16:03 44.83149 -63.56364 2852 ft 207 kts 218°
2026-05-05 16:03 44.81946 -63.57548 3285 ft 219 kts 217°
2026-05-05 16:03 44.80640 -63.58796 3710 ft 234 kts 217°
2026-05-05 16:04 44.79274 -63.60098 4429 ft 239 kts 217°
2026-05-05 16:04 44.77892 -63.61415 5228 ft 241 kts 219°
2026-05-05 16:04 44.76852 -63.63227 5888 ft 243 kts 248°
2026-05-05 16:04 44.76276 -63.65462 6646 ft 245 kts 250°
2026-05-05 16:05 44.75690 -63.67729 7317 ft 251 kts 249°
2026-05-05 16:05 44.75077 -63.70045 8041 ft 254 kts 249°
2026-05-05 16:05 44.74445 -63.72386 8730 ft 258 kts 249°
2026-05-05 16:05 44.73794 -63.74763 9405 ft 262 kts 249°
2026-05-05 16:06 44.73130 -63.77164 10105 ft 265 kts 249°
2026-05-05 16:06 44.72443 -63.79631 10519 ft 280 kts 249°
2026-05-05 16:06 44.71704 -63.82277 10685 ft 302 kts 249°
2026-05-05 16:06 44.70909 -63.85111 10862 ft 322 kts 249°
2026-05-05 16:07 44.70062 -63.88124 11009 ft 342 kts 249°
2026-05-05 16:07 44.69174 -63.91268 11167 ft 358 kts 249°
2026-05-05 16:07 44.68240 -63.94569 11547 ft 368 kts 249°
2026-05-05 16:07 44.67290 -63.97920 12129 ft 370 kts 249°
2026-05-05 16:08 44.66329 -64.01279 12771 ft 370 kts 248°
2026-05-05 16:08 44.65330 -64.04638 13281 ft 375 kts 248°